Location: Lombard
(41.8800°N, 88.0080°W)
Time: 14:20:41
(UTC-06:00)

Transit 4A - Pass Details

Date: 04 December 2023
Orbit: 870 x 973 km, 66.8° (Epoch: 03 March)

Event Time Altitude Azimuth Distance (km) Brightness Sun altitude
Rises 18:46:10 0° 176° (S) 3,649 11.0 -26.3°
Reaches altitude 10° 18:49:02 10° 166° (SSE) 2,709 10.2 -26.8°
Enters shadow 18:50:04 14° 160° (SSE) 2,403 9.9 -27.0°
Maximum altitude 18:54:23 29° 108° (ESE) 1,686 - -27.8°
Drops below altitude 10° 18:59:43 10° 50° (NE) 2,707 - -28.8°
Sets 19:02:34 0° 40° (NE) 3,646 - -29.3°
